Location: ???????
(54.7731°N, 39.0467°E)
Time: 06:38:22
(UTC+00:00)

Daily predictions for brighter satellites

Satellite Brightness Start Highest point End
(mag) Time Altitude Azimuth Time Altitude Azimuth Time Altitude Azimuth
NOSS 3-3 (A) 4.1 14:01:16 10° WSW 14:06:47 72° NW 14:13:34 10° NE
Cosmos 1459 Rocket 4.1 14:01:13 10° S 14:07:28 73° E 14:13:51 10° NNE
Cosmos 2297 Rocket 4.1 14:03:48 10° WNW 14:07:37 18° NNW 14:11:28 10° NNE
Cosmos 1025 Rocket 3.2 14:04:25 10° NNW 14:08:46 82° W 14:13:04 10° S
Cosmos 2100 Rocket 4.0 14:02:36 10° S 14:08:47 79° E 14:14:57 10° NNE
Thor Agena Rocket 3.6 14:04:21 10° SSE 14:09:36 79° ENE 14:14:54 10° NNW
SWARM C 4.5 14:09:06 10° N 14:12:25 65° E 14:15:43 10° SSE
DNEPR-1 R/B 4.3 14:08:11 10° NW 14:12:30 63° SW 14:17:22 10° SSE
SWARM A 4.3 14:09:14 10° N 14:12:31 55° E 14:15:47 10° SSE
CZ-2D R/B 3.3 14:10:18 10° SE 14:13:13 35° ENE 14:16:09 10° N
Geosat FO 4.4 14:11:04 10° ESE 14:13:49 40° NE 14:16:34 10° NNW
Cosmos 1674 Rocket 4.4 14:10:42 10° NNW 14:14:59 55° W 14:19:13 10° S
RESURS DK-1 2.8 14:14:17 10° NNW 14:18:05 38° NE 14:21:51 10° ESE
SAR-Lupe-1 4.2 14:15:31 10° SE 14:18:57 48° ENE 14:22:27 10° N
Meteor 1-28 Rocket 2.9 14:16:33 10° NNE 14:19:54 61° ESE 14:23:15 10° S
Cosmos 1606 2.1 14:17:29 10° SSW 14:20:08 68° W 14:22:50 10° N
IGS 5A 3.4 14:16:09 10° SSE 14:20:09 89° WSW 14:24:12 10° NNW
Cosmos 1864 Rocket 4.5 14:15:34 10° S 14:21:39 70° E 14:27:52 10° NNE
IRS-P3 4.3 14:18:10 10° SE 14:23:18 51° ENE 14:28:28 10° N
ATLAS 2AS CENTAUR R/B 3.3 14:17:52 10° WNW 14:24:20 40° N 14:30:12 12° ENE
Cosmos 2221 Rocket 4.2 14:22:51 10° NNW 14:27:19 62° W 14:31:42 10° S
Cosmos 2061 Rocket 4.2 14:23:39 10° SSE 14:29:40 49° E 14:35:38 10° NNE
SAR-Lupe-4 3.5 14:27:53 10° SSE 14:31:28 75° ENE 14:35:04 10° NNW
YAOGAN 1 3.5 14:30:12 10° ESE 14:33:42 25° ENE 14:37:14 10° N
NOSS 3-3 (C) 4.3 14:28:11 10° WSW 14:33:45 63° NNW 14:40:15 11° NE
PSLV R/B 4.4 14:32:31 10° ESE 14:35:49 25° ENE 14:39:08 10° N
Cosmos 1725 Rocket 4.0 14:29:50 10° S 14:36:06 79° E 14:42:27 10° NNE
Cosmos 2344 3.9 14:30:21 10° WNW 14:37:32 54° NNE 14:46:00 11° E
Cosmos 2233 Rocket 4.1 14:31:41 10° S 14:37:51 60° E 14:44:05 10° NNE
SJ-12 3.6 14:35:33 10° SSE 14:39:20 71° ENE 14:43:08 10° NNW
ARIANE 5 R/B 2.4 14:34:45 10° SSE 14:39:44 84° ENE 14:44:46 10° NNW
Resurs 1-3 4.5 14:36:38 10° ESE 14:40:15 27° ENE 14:43:54 10° N
ARIANE 6 FM1 Upper Stage 3.2 14:39:11 10° WSW 14:43:04 49° NNW 14:46:07 15° NE
CZ-2D R/B 4.0 14:39:19 10° SE 14:43:08 37° ENE 14:47:02 10° N
Cosmos 1340 Rocket 3.9 14:40:07 10° SW 14:43:50 44° WNW 14:47:32 10° N
Cosmos 468 Rocket 4.3 14:39:13 10° NNW 14:44:13 43° NE 14:49:09 10° SE
Aureole 3 Rocket 4.2 14:42:48 10° SE 14:43:37 14° ESE 14:43:37 14° ESE
Cosmos 2173 Rocket 4.5 14:40:38 10° SSW 14:46:47 64° WNW 14:52:53 10° N
Cosmos 2058 3.6 14:43:58 10° N 14:47:31 30° ENE 14:51:02 10° SE
Cosmos 1536 Rocket 4.5 14:44:11 10° N 14:48:00 27° ENE 14:51:46 10° ESE
IRAS Rocket 4.5 14:42:58 10° SE 14:48:16 47° ENE 14:53:32 10° N
SAR-Lupe-3 4.4 14:47:57 22° NE 14:49:12 36° E 14:51:40 10° S
USA 215 4.5 14:43:18 10° SSE 14:49:27 42° SW 14:55:38 10° WNW
Resurs 01 Rocket 3.0 14:49:03 18° ENE 14:49:42 19° NE 14:52:46 10° NNE
SMAP 3.5 14:47:40 10° S 14:52:18 68° WSW 14:56:59 10° NNW
Cosmos 2227 Rocket 4.2 14:52:06 10° WNW 14:55:52 18° NNW 14:59:37 10° NNE
Cosmos 2082 Rocket 2.3 14:51:18 10° NNW 14:56:50 55° NE 15:02:20 10° SE
SL-08 R/B 4.4 14:51:04 10° S 14:57:10 89° E 15:03:17 10° NNE
Cosmos 1802 Rocket 4.4 14:52:06 10° SSW 14:58:31 72° WNW 15:04:58 10° N
SPOT 1/Viking Rocket 3.5 14:59:15 10° SSE 15:04:20 62° ENE 15:09:29 10° N
Cosmos 2278 Rocket 3.0 14:59:53 10° SSE 15:04:46 31° ESE 15:07:18 22° ENE
Landsat 7 4.1 15:00:47 10° S 15:05:25 71° WSW 15:10:06 10° NNW
Timation 1 Rocket 4.3 14:59:26 10° NW 15:05:27 87° NE 15:11:26 10° SE
Cosmos 1943 Rocket 2.9 15:01:07 10° SSE 15:06:02 32° ESE 15:08:37 22° ENE
AQUARIUS 4.2 15:01:59 10° SSE 15:06:23 80° WSW 15:10:50 10° NNW
Cosmos 407 Rocket 3.9 15:03:48 10° S 15:08:36 39° ESE 15:11:36 20° NE
Cosmos 1782 Rocket 3.6 15:04:56 10° SSW 15:09:22 84° WNW 15:13:51 10° N
Cosmos 1869 3.2 15:06:00 10° SSE 15:09:22 45° E 15:11:07 24° NE
Cosmos 1812 4.4 15:06:59 10° SSE 15:07:20 12° SE 15:07:20 12° SE
Cosmos 2084 Rocket 3.4 15:08:46 10° SW 15:12:55 66° SE 15:14:52 30° ENE
CARTOSAT-1 4.2 15:14:03 30° ENE 15:14:36 31° ENE 15:18:19 10° N
SJ-7 4.2 15:11:29 10° SSE 15:15:05 54° ENE 15:18:43 10° N
ATLAS 5 CENTAUR R/B 3.4 15:11:16 10° WNW 15:15:09 34° SW 15:19:50 10° SSE
Cosmos 1300 Rocket 3.9 15:12:48 10° SSW 15:17:11 66° WNW 15:21:33 10° N
SL-16 R/B 3.3 15:11:09 10° NNE 15:17:14 53° WNW 15:23:15 10° SW
COSMOS 2406 3.4 15:17:47 10° NNW 15:23:22 51° NE 15:26:28 25° ESE
Spot 4 Rocket 3.9 15:19:09 10° SSE 15:24:14 76° ENE 15:29:22 10° NNW
Cosmos 1975 Rocket 3.9 15:20:03 10° NNW 15:24:16 53° W 15:28:30 10° S
Cosmos 2026 Rocket 4.4 15:19:29 10° N 15:25:05 37° ENE 15:28:19 22° ESE
USA 281 3.5 15:22:21 21° ESE 15:26:28 47° NE 15:32:43 10° NNW
ATLAS CENTAUR R/B 2.1 15:24:30 10° W 15:27:44 36° NNW 15:29:04 26° NNE
Cosmos 2263 Rocket 4.2 15:24:07 10° WNW 15:27:47 17° NNW 15:31:27 10° NNE
MOS 1 Rocket 3.4 15:24:08 10° S 15:28:26 70° WSW 15:32:58 10° NNW
Cosmos 2151 Rocket 4.1 15:24:30 10° SSE 15:28:25 36° E 15:28:25 36° E
Cosmos 1844 Rocket 4.2 15:25:25 10° W 15:30:19 30° NW 15:35:09 10° NNE
SL-12 R/B(2) 4.5 15:24:50 10° SSW 15:32:42 56° ESE 15:39:22 21° NE
COSMO-SKYMED 1 2.7 15:34:15 44° E 15:34:15 44° E 15:38:09 10° S
SKYMED 2 3.5 15:31:12 19° NNE 15:34:16 61° ESE 15:38:34 10° S
Cosmos 921 Rocket 4.5 15:31:29 10° WSW 15:35:32 36° NW 15:39:41 10° NNE
CZ-4C R/B 2.8 15:30:55 10° W 15:35:40 48° NNW 15:39:10 23° NE
Meteor 2-3 Rocket 4.0 15:30:31 10° N 15:36:00 44° ENE 15:38:23 29° ESE
Cosmos 1513 Rocket 4.5 15:30:00 10° S 15:36:18 69° E 15:42:42 10° NNE
Cosmos 1763 Rocket 4.2 15:31:34 10° NNW 15:36:41 56° WSW 15:41:43 10° S
Cosmos 540 Rocket 3.9 15:32:29 10° NNW 15:37:35 63° WSW 15:42:37 10° S
ISS -1.7 15:42:02 10° SSW 15:43:36 18° S 15:43:36 18° S
BREEZE-M DEB (TANK) 4.4 15:42:25 10° SSW 15:45:25 32° SE 15:46:03 31° SE
Cosmos 1140 Rocket 3.7 15:41:21 10° SW 15:46:30 68° WNW 15:50:29 17° NNE
Cosmos 1269 Rocket 4.4 15:41:21 10° SW 15:46:34 63° WNW 15:50:57 15° NNE
Nadezhda 4 Rocket 3.9 15:40:18 10° N 15:46:39 78° ENE 15:52:55 10° SSE
NOAA 6 3.9 15:44:49 10° SSE 15:49:58 82° ENE 15:55:09 10° NNW
Helios 1A Rocket 4.3 15:54:42 21° S 15:54:42 21° S 15:55:56 10° S
Cosmos 2297 Rocket 4.0 15:50:27 10° NNW 15:53:58 16° N 15:55:01 16° NNE
RESURS DK-1 3.8 15:51:48 10° NW 15:55:29 35° WSW 15:59:09 10° S
Cosmos 1602 4.1 15:54:55 10° NNW 15:57:53 46° W 15:58:11 44° WSW
Cosmos 2251 Rocket 3.5 15:53:51 10° S 15:59:00 56° ESE 15:59:27 54° E
Cosmos 2195 Rocket 4.4 15:54:10 10° N 16:00:28 69° ENE 16:06:46 10° SSE
BREEZE M DEB (TANK) 3.7 15:50:58 10° W 16:04:04 54° SSW 16:05:36 39° SE
Cosmos 1862 3.3 16:00:33 10° NNW 16:04:09 66° W 16:04:11 66° WSW
Geosat 4.3 16:01:25 17° SSE 16:05:14 65° WSW 16:10:14 10° NW
SPOT 5 4.3 16:07:36 26° NNE 16:07:36 26° NNE 16:10:19 10° N
Timation 2 Rocket 4.1 15:59:40 10° SSW 16:06:33 80° ESE 16:10:11 31° NE
Cosmos 1428 Rocket 4.4 16:01:56 10° N 16:08:14 89° E 16:14:33 10° S
YAOGAN 1 3.3 16:05:11 10° S 16:09:20 51° W 16:13:31 10° NNW
PSLV R/B 4.3 16:06:54 10° S 16:10:50 48° W 16:14:46 10° NNW
Cosmos 841 Rocket 3.4 16:08:57 10° NNW 16:14:15 88° WSW 16:15:37 51° SSE
Resurs 1-3 4.5 16:11:57 10° S 16:16:06 48° W 16:20:18 10° NNW
ATLAS 2AS CENTAUR R/B 2.7 16:09:30 10° NW 16:16:18 64° NNE 16:17:37 54° E
ARIANE 6 FM1 Upper Stage 4.2 16:19:20 10° WNW 16:22:10 27° NNW 16:22:10 27° NNW
Cosmos 2058 4.5 16:20:05 10° NNW 16:23:41 34° W 16:27:17 10° SSW
SJ 16-02 3.5 16:20:21 10° S 16:21:10 15° S 16:21:10 15° S
Resurs 01 Rocket 2.0 16:26:28 56° NNW 16:26:28 56° NNW 16:30:02 10° NNW
Cosmos 44 Rocket 3.9 16:25:07 10° SW 16:28:34 47° SSW 16:28:34 47° SSW
Cosmos 1464 Rocket 4.2 16:29:37 10° SSW 16:35:54 70° WNW 16:42:09 10° N
Cosmos 1190 Rocket 4.2 16:31:11 10° SSW 16:35:36 63° SSW 16:35:36 63° SSW
Cosmos 2082 Rocket 3.5 16:35:38 10° NW 16:40:45 37° WSW 16:45:21 12° S
Cosmos 2227 Rocket 4.2 16:38:41 10° NNW 16:42:04 16° N 16:42:04 16° N
Cosmos 2034 Rocket 4.0 16:41:22 10° SSW 16:47:35 81° WNW 16:53:54 10° N
Cosmos 2278 Rocket 2.5 16:42:52 10° SW 16:48:30 64° NW 16:49:10 59° NNW
Cosmos 1943 Rocket 2.5 16:43:56 10° SW 16:49:29 61° NW 16:50:09 57° NNW
Cosmos 407 Rocket 4.5 16:45:33 10° SW 16:50:30 44° NW 16:51:44 37° NNW
Cosmos 2344 3.9 16:44:44 10° NW 16:52:26 73° SW 16:56:03 42° SSE
Cosmos 1092 Rocket 4.2 16:54:52 10° NNW 17:01:07 67° W 17:02:33 51° SSW
ATLAS CENTAUR R/B 4.2 17:01:15 10° NW 17:01:34 11° NW 17:01:34 11° NW
BREEZE-M DEB (TANK) 4.5 17:02:20 10° WSW 17:04:22 42° WSW 17:04:22 42° WSW
COSMOS 2406 4.2 17:02:17 10° NW 17:07:35 41° WSW 17:08:33 38° SW
USA 281 3.7 17:09:14 45° SSW 17:10:55 56° WSW 17:17:24 10° NW
Cosmos 2263 Rocket 4.3 17:10:31 10° NNW 17:13:06 16° N 17:13:06 16° N
CZ-4C R/B 3.5 17:19:57 10° WNW 17:24:07 36° NNW 17:24:07 36° NNW
Cosmos 2297 Rocket 4.3 17:34:51 10° NNW 17:36:48 19° NNW 17:36:48 19° NNW
ATLAS 2AS CENTAUR R/B 3.8 18:00:39 10° NW 18:05:03 37° W 18:05:03 37° W
ACS3 Solar Sail 4.2 23:11:19 10° NE 23:13:18 15° ENE 23:13:18 15° ENE
CENTAUR R/B 4.4 23:18:14 34° NE 23:18:14 34° NE 23:23:32 10° ENE
